{"data":{"norad_id":66266,"epoch":"2026-09-20T13:13:15.295008Z","epoch_age_seconds":92315,"freshness":"FRESH","line1":"1 66266U 25247B   26263.55087147  .00018529  00000+0  55815-3 0  9993","line2":"2 66266  53.1600   3.7920 0001330  90.0529 270.0626 15.34400763 50906","mean_motion":15.34400763,"eccentricity":0.000133,"inclination_deg":53.16,"raan_deg":3.792,"arg_perigee_deg":90.0529,"mean_anomaly_deg":270.0626,"bstar":0.00055815,"rev_number":5090,"period_min":93.847711414361,"perigee_km":461.79114096092,"apogee_km":463.61080386158,"semimajor_km":6840.8379724112,"source":"CELESTRAK","updated_at":"2026-09-21T09:00:35.852397Z"}}